1513256400.45,3078,6.44,71736.8,-9.17,-16.75,-17.63,0,*65
1513256401.68,3079,6.44,71738.3,-9.15,-16.89,-17.73,0,*64
1513256402.91,3080,6.44,71730.0,-9.17,-16.89,-17.73,0,*60
1513256404.17,3081,6.44,71736.8,-9.17,-16.89,-17.63,0,*60
1513256405.4,3082,6.44,71724.0,-9.17,-16.83,-17.49,0,*61
1513256406.66,3083,6.44,71720.3,-9.15,-16.83,-17.59,0,*63
1513256407.92,3084,6.44,71722.5,-9.15,-16.89,-17.41,0,*67
1513256409.15,3085,6.44,71726.5,-9.15,-16.83,-17.31,0,*6B
1513256410.41,3086,6.44,71714.3,-9.15,-16.89,-17.45,0,*61
1513256411.67,3087,6.44,71722.5,-9.15,-16.89,-17.41,0,*64
1513256412.93,3088,6.44,71732.3,-9.15,-16.97,-17.41,0,*64
1513256414.15,3089,6.44,71736.3,-9.15,-16.89,-17.31,0,*6D
1513256415.38,3090,6.44,71748.5,-9.15,-16.89,-17.31,0,*65
1513256416.64,3091,6.44,71756.5,-9.15,-16.97,-17.41,0,*6C
1513256417.9,3092,6.44,71766.5,-9.15,-16.83,-17.17,0,*69
1513256419.16,3093,6.44,71766.8,-9.15,-16.75,-17.03,0,*64
1513256420.42,3094,6.44,71768.5,-9.15,-16.75,-17.03,0,*63
1513256421.63,3095,6.44,71764.0,-9.13,-16.55,-16.93,0,*6E
1513256422.85,3096,6.44,71768.5,-9.13,-16.55,-16.79,0,*69
1513256424.09,3097,6.44,71770.0,-9.11,-16.41,-16.79,0,*6F
1513256425.35,3098,6.44,71770.3,-9.11,-16.41,-16.65,0,*6D
1513256426.58,3099,6.44,71772.5,-9.13,-16.37,-16.51,0,*68
1513256427.84,3100,6.44,71774.0,-9.13,-16.17,-16.51,0,*6B
1513256429.1,3101,6.44,71772.3,-9.11,-16.17,-16.41,0,*69
1513256430.39,3102,6.44,71774.0,-9.11,-16.17,-16.31,0,*6D
1513256431.65,3103,6.44,71770.8,-9.13,-16.17,-16.31,0,*6E
1513256432.94,3104,6.44,71766.3,-9.11,-16.09,-16.31,0,*64
1513256434.23,3105,6.44,71758.5,-9.11,-16.09,-16.23,0,*66
1513256435.46,3106,6.44,71748.8,-9.09,-15.99,-16.13,0,*65
1513256436.7,3107,6.44,71744.0,-9.09,-15.89,-16.03,0,*64
1513256437.95,3108,6.44,71746.0,-9.07,-15.89,-15.99,0,*65
1513256439.21,3109,6.44,71756.5,-9.07,-15.89,-15.99,0,*64
1513256440.46,3110,6.44,71746.5,-9.07,-15.85,-15.99,0,*60
1513256441.72,3111,6.44,71744.3,-9.07,-15.85,-16.03,0,*61
1513256442.97,3112,6.44,71722.3,-9.07,-15.89,-16.03,0,*6E
1513256444.21,3113,6.44,71742.8,-9.05,-15.85,-15.95,0,*6D
1513256445.46,3114,6.44,71718.8,-9.07,-15.89,-15.99,0,*68
1513256446.72,3115,6.44,71702.8,-9.07,-15.85,-15.99,0,*65
1513256447.96,3116,6.44,71690.0,-9.09,-15.71,-15.85,0,*6E
1513256449.22,3117,6.44,71692.0,-9.07,-15.75,-15.85,0,*65
1513256450.48,3118,6.44,71694.0,-9.07,-15.75,-15.85,0,*6A
1513256451.68,3119,6.44,71662.3,-9.05,-15.67,-15.67,0,*66
1513256452.91,3120,6.44,71692.5,-9.05,-15.57,-15.67,0,*6F
1513256454.17,3121,6.44,71680.8,-9.05,-15.43,-15.57,0,*68
1513256455.42,3122,6.44,71742.3,-9.05,-15.57,-15.57,0,*6E
1513256456.71,3123,6.44,71742.3,-9.03,-15.39,-15.43,0,*64
1513256457.95,3124,6.44,71742.3,-9.05,-15.35,-15.25,0,*69
1513256459.19,3125,6.44,71764.5,-9.05,-15.21,-15.25,0,*6D
1513256460.44,3126,6.44,71772.3,-9.03,-15.25,-15.35,0,*6D
1513256461.7,3127,6.44,71750.5,-9.03,-15.21,-15.25,0,*69
1513256462.96,3128,6.44,71752.5,-9.03,-15.07,-15.21,0,*66
1513256464.2,3129,6.44,71708.8,-8.99,-15.01,-15.15,0,*64
1513256465.41,3130,6.44,71736.5,-8.97,-15.07,-15.15,0,*64
1513256466.65,3131,6.44,71692.8,-8.99,-15.01,-15.07,0,*6E
1513256467.9,3132,6.44,71704.0,-8.99,-15.01,-15.07,0,*6D
1513256469.15,3133,6.44,71710.5,-8.99,-15.01,-15.07,0,*6C
1513256470.42,3134,6.44,71674.5,-8.95,-15.01,-15.01,0,*61
1513256471.62,3135,6.44,71648.0,-8.97,-15.07,-15.07,0,*62
1513256472.83,3136,6.44,71722.5,-8.97,-15.15,-15.07,0,*62
1513256474.07,3137,6.44,71740.8,-8.97,-15.01,-15.01,0,*60
1513256475.3,3138,6.44,71694.3,-8.97,-14.89,-14.79,0,*60
1513256476.53,3139,6.44,71660.5,-8.97,-14.89,-14.79,0,*61
1513256477.82,3140,6.44,71698.8,-8.95,-14.83,-14.83,0,*62
1513256479.08,3141,6.44,71736.3,-8.93,-14.83,-14.83,0,*65
1513256480.36,3142,6.44,71748.8,-8.95,-14.83,-14.75,0,*69
1513256481.63,3143,6.44,71726.5,-8.93,-14.83,-14.83,0,*67
1513256482.86,3144,6.44,71758.5,-8.93,-14.89,-14.83,0,*6A
1513256484.08,3145,6.44,71774.0,-8.91,-14.65,-14.69,0,*6F
1513256485.3,3146,6.44,71782.3,-8.91,-14.65,-14.69,0,*6C
1513256486.52,3147,6.44,71766.3,-8.91,-14.65,-14.65,0,*61
1513256487.78,3148,6.44,71784.8,-8.91,-14.55,-14.65,0,*6D
1513256489.0,3149,6.44,71752.5,-8.91,-14.65,-14.69,0,*63
1513256490.22,3150,6.44,71740.8,-8.89,-14.65,-14.75,0,*6F
1513256491.48,3151,6.44,71754.0,-8.89,-14.79,-14.83,0,*6A
1513256492.73,3152,6.44,71738.3,-8.89,-14.75,-14.79,0,*60
1513256493.96,3153,6.44,71736.0,-8.89,-14.65,-14.79,0,*60
1513256495.16,3154,6.44,71750.0,-8.89,-14.65,-14.89,0,*68
1513256496.37,3155,6.44,71718.8,-8.89,-14.65,-14.89,0,*69
1513256497.57,3156,6.44,71744.3,-8.89,-14.65,-14.89,0,*6A
1513256498.8,3157,6.44,71764.0,-8.89,-14.61,-14.93,0,*64
1513256500.03,3158,6.44,71786.5,-8.89,-14.61,-14.93,0,*6B
1513256501.29,3159,6.44,71716.8,-8.89,-14.51,-14.93,0,*69
1513256502.55,3160,6.44,71750.0,-8.89,-14.47,-14.79,0,*60
1513256503.82,3161,6.44,71766.8,-8.87,-14.47,-14.89,0,*60
1513256505.06,3162,6.44,71732.0,-8.85,-14.33,-14.83,0,*68
1513256506.29,3163,6.44,71774.8,-8.85,-14.33,-14.83,0,*69
1513256507.52,3164,6.44,71770.8,-8.85,-14.33,-14.83,0,*6E
1513256508.76,3165,6.44,71730.0,-8.85,-14.33,-14.83,0,*6F
1513256510.02,3166,6.44,71742.5,-8.83,-14.47,-14.97,0,*6C
1513256511.28,3167,6.44,71776.3,-8.83,-14.43,-14.97,0,*69
1513256512.54,3168,6.44,71794.5,-8.81,-14.43,-14.89,0,*6B
1513256513.78,3169,6.44,71794.5,-8.83,-14.33,-14.97,0,*60
1513256514.99,3170,6.44,71762.8,-8.83,-14.33,-14.89,0,*67
1513256516.25,3171,6.44,71758.3,-8.81,-14.43,-14.89,0,*63
1513256517.53,3172,6.44,71740.3,-8.81,-14.55,-14.97,0,*68
1513256518.76,3173,6.44,71756.5,-8.75,-14.61,-14.93,0,*61
1513256519.99,3174,6.44,71752.3,-8.77,-14.69,-15.07,0,*60
1513256521.22,3175,6.44,71758.0,-8.77,-14.69,-15.07,0,*61
1513256522.48,3176,6.44,71766.8,-8.77,-14.79,-15.15,0,*60
1513256523.74,3177,6.44,71778.3,-8.77,-14.83,-15.15,0,*64
1513256525.0,3178,6.44,71766.3,-8.77,-14.79,-15.07,0,*6D
1513256526.26,3179,6.44,71770.3,-8.75,-14.75,-14.93,0,*6E
1513256527.51,3180,6.44,71762.8,-8.75,-14.93,-15.01,0,*6A
1513256528.73,3181,6.44,71746.5,-8.75,-15.01,-15.11,0,*60
1513256529.95,3182,6.44,71728.5,-8.75,-15.11,-15.21,0,*61
1513256531.19,3183,6.44,71726.5,-8.73,-15.25,-15.25,0,*65
1513256532.48,3184,6.44,71730.8,-8.73,-15.39,-15.21,0,*6B
1513256533.74,3185,6.44,71730.3,-8.73,-15.39,-15.25,0,*6E
1513256535.02,3186,6.44,71730.3,-8.73,-15.39,-15.21,0,*69
1513256536.25,3187,6.44,71736.5,-8.71,-15.35,-15.11,0,*65
1513256537.49,3188,6.44,71744.0,-8.71,-15.29,-14.97,0,*68
1513256538.72,3189,6.44,71732.8,-8.71,-15.29,-14.97,0,*69
1513256539.97,3190,6.44,71740.5,-8.71,-15.21,-14.97,0,*69
1513256541.22,3191,6.44,71738.8,-8.71,-15.21,-14.97,0,*68
1513256542.45,3192,6.44,71756.3,-8.71,-15.07,-14.75,0,*63
1513256543.68,3193,6.44,71752.8,-8.71,-15.15,-14.83,0,*68
1513256544.94,3194,6.44,71756.5,-8.69,-15.29,-14.83,0,*69
1513256546.2,3195,6.44,71744.3,-8.69,-15.29,-14.75,0,*61
1513256547.47,3196,6.44,71750.3,-8.69,-15.21,-14.75,0,*6A
1513256548.73,3197,6.44,71764.3,-8.69,-15.29,-14.75,0,*63
1513256549.96,3198,6.44,71756.5,-8.69,-15.07,-14.61,0,*65
1513256551.19,3199,6.44,71766.3,-8.69,-15.15,-14.69,0,*6F
1513256552.44,3200,6.44,71768.3,-8.69,-15.07,-14.55,0,*60
1513256553.67,3201,6.44,71764.5,-8.67,-15.07,-14.55,0,*6F
1513256554.93,3202,6.44,71762.8,-8.69,-15.07,-14.47,0,*61
1513256556.15,3203,6.44,71754.3,-8.67,-14.97,-14.37,0,*61
1513256557.37,3204,6.44,71758.3,-8.67,-14.93,-14.29,0,*6D
1513256558.63,3205,6.44,71756.8,-8.65,-14.83,-14.23,0,*65
1513256559.88,3206,6.44,71758.5,-8.65,-14.93,-14.29,0,*6D
1513256561.11,3207,6.44,71750.5,-8.67,-14.83,-14.23,0,*65
1513256562.34,3208,6.44,71754.3,-8.67,-14.79,-14.23,0,*6F
1513256563.54,3209,6.44,71740.5,-8.67,-14.65,-14.11,0,*62
1513256564.8,3210,6.44,71772.3,-8.67,-14.51,-14.01,0,*6C
1513256566.03,3211,6.44,71770.3,-8.67,-14.51,-13.93,0,*61
1513256567.28,3212,6.44,71756.8,-8.65,-14.55,-14.11,0,*69
1513256568.54,3213,6.44,71762.3,-8.63,-14.55,-14.05,0,*6B
1513256569.76,3214,6.44,71722.8,-8.65,-14.69,-14.15,0,*64
1513256570.99,3215,6.44,71714.5,-8.65,-14.65,-14.15,0,*69
1513256572.25,3216,6.44,71706.5,-8.65,-14.37,-13.97,0,*60
1513256573.5,3217,6.44,71708.3,-8.65,-14.43,-13.93,0,*66
1513256574.75,3218,6.44,71712.5,-8.65,-14.51,-14.11,0,*67
1513256576.01,3219,6.44,71730.8,-8.63,-14.47,-14.05,0,*62
1513256577.24,3220,6.44,71728.3,-8.59,-14.05,-13.73,0,*61
1513256578.46,3221,6.44,71716.5,-8.63,-14.19,-13.79,0,*6E
1513256579.72,3222,6.44,71720.5,-8.61,-14.11,-13.79,0,*67
1513256580.97,3223,6.44,71712.8,-8.61,-14.19,-13.87,0,*6F
1513256582.21,3224,6.44,71684.8,-8.61,-14.11,-13.73,0,*6B
1513256583.46,3225,6.44,71670.5,-8.59,-14.05,-13.87,0,*6F
1513256584.66,3226,6.44,71676.3,-8.59,-14.19,-13.93,0,*64
1513256585.88,3227,6.44,71682.5,-8.59,-14.33,-14.01,0,*61
1513256587.11,3228,6.44,71700.8,-8.59,-14.19,-13.87,0,*6F
1513256588.36,3229,6.44,71728.5,-8.61,-13.87,-13.73,0,*6E
1513256589.59,3230,6.44,71730.3,-8.55,-13.83,-13.69,0,*6E
1513256590.82,3231,6.44,71734.3,-8.51,-13.69,-13.55,0,*60
1513256592.07,3232,6.44,71728.0,-8.51,-13.79,-13.55,0,*62
1513256593.35,3233,6.44,71682.0,-8.51,-13.97,-13.79,0,*6D
1513256594.63,3234,6.44,71714.5,-8.51,-13.97,-13.83,0,*6F
1513256595.89,3235,6.44,71758.8,-8.51,-14.11,-13.83,0,*67
1513256597.15,3236,6.44,71748.3,-8.49,-13.97,-13.83,0,*64
1513256598.42,3237,6.44,71728.3,-8.47,-13.97,-13.79,0,*6E
1513256599.68,3238,6.44,71720.3,-8.49,-14.05,-13.83,0,*66
1513256600.89,3239,6.44,71724.5,-8.49,-14.23,-13.93,0,*62
1513256602.09,3240,6.44,71698.0,-8.49,-14.11,-13.93,0,*6D
1513256603.35,3241,6.44,71692.3,-8.47,-14.23,-14.05,0,*6B
1513256604.59,3242,6.44,71712.3,-8.49,-14.37,-13.97,0,*6F
1513256605.79,3243,6.44,71662.5,-8.49,-14.37,-14.11,0,*67
1513256607.04,3244,6.44,71736.0,-8.47,-14.37,-14.05,0,*6B
1513256608.27,3245,6.44,71724.3,-8.47,-14.33,-14.11,0,*6B
1513256609.53,3246,6.44,71730.0,-8.47,-14.33,-13.97,0,*61
1513256610.79,3247,6.44,71704.5,-8.47,-14.37,-14.05,0,*68
1513256612.01,3248,6.44,71714.5,-8.43,-14.33,-14.15,0,*66
1513256613.25,3249,6.44,71660.5,-8.45,-14.33,-14.01,0,*64
1513256614.52,3250,6.44,71700.5,-8.45,-14.47,-14.05,0,*6B
1513256615.78,3251,6.44,71734.5,-8.45,-14.43,-14.05,0,*6E
1513256617.03,3252,6.44,71722.3,-8.43,-14.43,-13.93,0,*63
1513256618.29,3253,6.44,71700.8,-8.45,-14.43,-14.05,0,*6C
1513256619.51,3254,6.44,71706.8,-8.43,-14.61,-14.19,0,*60
1513256620.72,3255,6.44,71706.5,-8.45,-14.61,-14.19,0,*67
1513256621.96,3256,6.44,71718.3,-8.45,-14.55,-14.19,0,*63
1513256623.18,3257,6.44,71720.0,-8.43,-14.61,-14.15,0,*6F
1513256624.46,3258,6.44,71748.8,-8.43,-14.55,-14.01,0,*62
1513256625.68,3259,6.44,71744.5,-8.43,-14.61,-13.93,0,*68
1513256626.93,3260,6.44,71778.0,-8.43,-14.55,-13.93,0,*65
1513256628.2,3261,6.44,71762.5,-8.43,-14.55,-13.87,0,*61
1513256629.42,3262,6.44,71736.3,-8.41,-14.65,-13.87,0,*63
1513256630.65,3263,6.44,71748.0,-8.41,-14.83,-14.11,0,*62
1513256631.91,3264,6.44,71742.5,-8.41,-14.83,-14.01,0,*64
1513256633.13,3265,6.44,71736.0,-8.41,-15.01,-14.23,0,*6E
1513256634.33,3266,6.44,71712.8,-8.41,-15.11,-14.29,0,*66
1513256635.56,3267,6.44,71696.8,-8.39,-15.25,-14.29,0,*6F
1513256636.78,3268,6.44,71706.0,-8.41,-15.57,-14.65,0,*62
1513256638.02,3269,6.44,71702.3,-8.39,-15.53,-14.65,0,*68
1513256639.26,3270,6.44,71700.5,-8.41,-15.39,-14.43,0,*67
1513256640.52,3271,6.5,71712.5,-8.43,-15.49,-14.47,0,*67
1513256641.76,3272,6.44,71730.0,-8.43,-15.21,-14.19,0,*61
1513256642.96,3273,6.44,71760.5,-8.41,-15.25,-14.15,0,*6A
1513256644.17,3274,6.44,71720.5,-8.41,-15.29,-14.29,0,*6E
1513256645.39,3275,6.44,71690.5,-8.41,-15.15,-13.87,0,*63
1513256646.64,3276,6.44,71696.8,-8.43,-14.79,-13.69,0,*69
1513256647.86,3277,6.44,71728.8,-8.43,-14.61,-13.43,0,*69
1513256649.05,3278,6.44,71736.0,-8.41,-14.69,-13.51,0,*6F
1513256650.25,3279,6.44,71746.0,-8.41,-14.65,-13.43,0,*61
1513256651.46,3280,6.44,71744.3,-8.39,-14.65,-13.43,0,*68
1513256652.69,3281,6.44,71742.8,-8.41,-14.75,-13.51,0,*64
1513256653.94,3282,6.44,71758.8,-8.39,-14.43,-13.23,0,*68
1513256655.19,3283,6.44,71760.5,-8.39,-14.55,-13.43,0,*68
1513256656.39,3284,6.44,71766.5,-8.37,-14.65,-13.51,0,*61
1513256657.61,3285,6.5,71752.5,-8.37,-14.69,-13.61,0,*6F
1513256658.81,3286,6.44,71746.8,-8.37,-14.69,-13.51,0,*6F
1513256660.03,3287,6.44,71732.5,-8.37,-14.69,-13.61,0,*6D
1513256661.25,3288,6.44,71726.0,-8.35,-14.65,-13.51,0,*6F
1513256662.45,3289,6.5,71726.0,-8.37,-14.69,-13.65,0,*67
1513256663.69,3290,6.44,71750.0,-8.37,-14.97,-13.79,0,*63
1513256664.92,3291,6.44,71716.0,-8.37,-14.93,-13.79,0,*66
1513256666.14,3292,6.5,71724.5,-8.37,-14.97,-13.93,0,*65
1513256667.38,3293,6.44,71622.5,-8.35,-14.93,-13.93,0,*62
1513256668.6,3294,6.44,71620.3,-8.37,-14.97,-13.93,0,*63
1513256669.85,3295,6.44,71672.8,-8.37,-14.93,-13.97,0,*62
1513256671.09,3296,6.44,71688.5,-8.37,-14.93,-13.83,0,*64
1513256672.34,3297,6.44,71702.0,-8.37,-14.83,-13.79,0,*61
1513256673.55,3298,6.44,71704.0,-8.37,-14.69,-13.79,0,*6A
1513256674.81,3299,6.44,71710.3,-8.37,-14.93,-13.97,0,*6E
1513256676.03,3300,6.44,71688.3,-8.37,-14.83,-13.93,0,*6A
1513256677.28,3301,6.44,71724.5,-8.37,-14.97,-13.97,0,*6A
1513256678.5,3302,6.44,71718.5,-8.35,-14.69,-13.93,0,*6E
1513256679.77,3303,6.44,71710.8,-8.35,-14.97,-14.05,0,*66
1513256681.01,3304,6.44,71730.5,-8.35,-14.97,-14.11,0,*64
1513256682.2,3305,6.44,71742.0,-8.37,-15.07,-14.11,0,*6F
1513256683.45,3306,6.44,71738.3,-8.37,-14.93,-13.83,0,*6C
1513256684.7,3307,6.5,71730.5,-8.37,-14.93,-14.05,0,*64
1513256685.89,3308,6.44,71752.0,-8.37,-15.07,-14.11,0,*62
1513256687.13,3309,6.44,71770.0,-8.35,-14.69,-13.83,0,*64
1513256688.42,3310,6.44,71764.3,-8.35,-14.83,-13.97,0,*6D
1513256689.65,3311,6.44,71740.3,-8.35,-15.07,-14.23,0,*69
1513256690.87,3312,6.44,71720.5,-8.35,-15.07,-14.19,0,*63
1513256692.1,3313,6.44,71732.5,-8.35,-15.07,-14.33,0,*6A
1513256693.3,3314,6.44,71716.8,-8.37,-15.07,-14.33,0,*6F
1513256694.55,3315,6.44,71736.0,-8.35,-15.11,-14.47,0,*68
1513256695.8,3316,6.5,71734.5,-8.35,-15.11,-14.47,0,*6B
1513256697.06,3317,6.44,71750.0,-8.35,-14.83,-14.33,0,*63
1513256698.28,3318,6.44,71754.5,-8.35,-15.07,-14.61,0,*66
1513256699.51,3319,6.5,71736.5,-8.33,-15.01,-14.65,0,*63
1513256700.74,3320,6.44,71754.5,-8.33,-15.15,-14.93,0,*65
1513256701.97,3321,6.44,71742.0,-8.35,-15.49,-15.25,0,*67
1513256703.23,3322,6.44,71750.3,-8.35,-15.67,-15.57,0,*6D
1513256704.49,3323,6.44,71746.3,-8.35,-15.57,-15.49,0,*60
1513256705.72,3324,6.5,71764.3,-8.35,-15.71,-15.71,0,*68
1513256707.0,3325,6.44,71742.0,-8.35,-15.85,-15.85,0,*69
1513256708.26,3326,6.44,71734.0,-8.35,-15.85,-15.99,0,*67
1513256709.52,3327,6.44,71724.0,-8.37,-16.09,-16.13,0,*62
1513256710.74,3328,6.44,71762.3,-8.35,-16.37,-16.37,0,*64
1513256711.97,3329,6.44,71758.3,-8.37,-16.51,-16.55,0,*63
1513256713.26,3330,6.44,71758.0,-8.35,-16.69,-16.69,0,*6D
1513256714.49,3331,6.5,71716.8,-8.35,-16.83,-16.83,0,*6C
1513256715.69,3332,6.5,71740.8,-8.37,-16.89,-16.89,0,*6D
1513256716.97,3333,6.5,71742.8,-8.35,-17.11,-17.03,0,*6D
1513256718.22,3334,6.44,71744.8,-8.35,-17.25,-16.97,0,*61
1513256719.45,3335,6.5,71704.0,-8.37,-17.31,-17.11,0,*68
1513256720.71,3336,6.44,71666.5,-8.37,-17.41,-17.03,0,*6F
1513256721.96,3337,6.44,71618.5,-8.35,-17.31,-17.03,0,*6B
1513256723.22,3338,6.44,71656.5,-8.35,-17.49,-17.11,0,*68
1513256724.47,3339,6.44,71664.8,-8.37,-17.59,-17.17,0,*6C
1513256725.74,3340,6.5,71708.8,-8.35,-17.63,-17.17,0,*69
1513256726.97,3341,6.44,71706.3,-8.33,-17.73,-17.21,0,*6A
1513256728.21,3342,6.44,71732.8,-8.33,-18.01,-17.35,0,*66
1513256729.46,3343,6.5,71774.0,-8.35,-18.07,-17.45,0,*60
1513256730.72,3344,6.44,71746.5,-8.35,-18.49,-17.79,0,*62
1513256731.97,3345,6.44,71750.5,-8.35,-18.65,-17.79,0,*6D
1513256733.21,3346,6.44,71752.0,-8.35,-18.69,-17.87,0,*63
1513256734.46,3347,6.44,71742.3,-8.35,-18.79,-17.93,0,*66
1513256735.7,3348,6.44,71728.8,-8.35,-18.69,-17.87,0,*6D
1513256736.93,3349,6.44,71716.8,-8.35,-18.99,-18.07,0,*64
1513256738.14,3350,6.44,71692.8,-8.37,-19.07,-18.07,0,*68
1513256739.39,3351,6.44,71692.5,-8.37,-18.93,-18.01,0,*63
1513256740.6,3352,6.44,71698.8,-8.37,-18.99,-18.21,0,*68
1513256741.81,3353,6.44,71682.5,-8.37,-18.69,-17.87,0,*65
1513256743.04,3354,6.5,71706.5,-8.37,-18.79,-17.79,0,*62
1513256744.25,3355,6.44,71712.0,-8.37,-18.79,-17.87,0,*62
1513256745.46,3356,6.44,71708.5,-8.37,-18.99,-18.07,0,*68
1513256746.69,3357,6.44,71712.8,-8.37,-19.37,-18.35,0,*6D
1513256747.92,3358,6.44,71694.5,-8.37,-19.57,-18.79,0,*6C
1513256749.14,3359,6.44,71702.8,-8.37,-19.85,-18.83,0,*67
1513256750.35,3360,6.44,71708.8,-8.39,-20.05,-19.03,0,*68
1513256751.54,3361,6.44,71714.3,-8.41,-20.05,-18.99,0,*64
1513256752.77,3362,6.44,71708.0,-8.39,-19.51,-18.45,0,*62
1513256754.03,3363,6.44,71708.5,-8.41,-19.31,-18.35,0,*6D
1513256755.26,3364,6.44,71718.0,-8.41,-19.41,-18.41,0,*6E
1513256756.51,3365,6.5,71706.3,-8.41,-19.61,-18.59,0,*64
1513256757.73,3366,6.44,71696.5,-8.41,-19.31,-18.25,0,*69
1513256758.96,3367,6.44,71710.5,-8.41,-19.31,-18.25,0,*68
1513256760.17,3368,6.5,71732.5,-8.41,-19.17,-18.11,0,*64
1513256761.4,3369,6.44,71724.0,-8.41,-19.27,-18.25,0,*61
1513256762.65,3370,6.44,71708.8,-8.41,-19.41,-18.55,0,*6E
1513256763.87,3371,6.44,71720.8,-8.41,-19.47,-18.59,0,*65
1513256765.08,3372,6.5,71722.5,-8.41,-19.51,-18.69,0,*62
1513256766.3,3373,6.5,71734.8,-8.41,-19.47,-18.55,0,*6B
1513256767.51,3374,6.44,71730.0,-8.41,-19.47,-18.45,0,*6D
1513256768.73,3375,6.5,71750.8,-8.41,-19.41,-18.41,0,*6E
1513256769.94,3376,6.5,71760.0,-8.41,-19.51,-18.73,0,*6D
1513256771.19,3377,6.44,71762.8,-8.43,-19.65,-18.79,0,*63
1513256772.42,3378,6.5,71752.8,-8.43,-19.51,-18.73,0,*61
1513256773.65,3379,6.44,71764.5,-8.43,-19.37,-18.65,0,*67
1513256774.9,3380,6.5,71756.8,-8.43,-19.51,-18.89,0,*63
1513256776.18,3381,6.5,71764.8,-8.43,-19.57,-18.93,0,*6F
1513256777.42,3382,6.5,71780.0,-8.45,-19.51,-18.93,0,*6C
1513256778.67,3383,6.44,71768.8,-8.43,-19.37,-18.93,0,*6B
1513256779.91,3384,6.5,71756.3,-8.45,-19.57,-19.03,0,*64
1513256781.15,3385,6.5,71756.5,-8.45,-19.81,-19.23,0,*6C
1513256782.37,3386,6.5,71742.8,-8.45,-19.71,-19.17,0,*67
1513256783.58,3387,6.5,71750.8,-8.45,-19.71,-19.17,0,*66
1513256784.82,3388,6.5,71748.5,-8.45,-19.95,-19.31,0,*67
1513256786.03,3389,6.44,71748.3,-8.45,-19.99,-19.37,0,*6C
1513256787.31,3390,6.5,71752.0,-8.47,-20.15,-19.61,0,*6B
1513256788.56,3391,6.5,71752.5,-8.49,-20.19,-19.41,0,*6A
1513256789.79,3392,6.5,71746.8,-8.47,-19.99,-19.13,0,*62
1513256791.02,3393,6.5,71742.5,-8.45,-19.85,-19.07,0,*69
1513256792.22,3394,6.44,71742.8,-8.45,-19.95,-19.07,0,*6F
1513256793.42,3395,6.44,71754.5,-8.45,-19.99,-19.03,0,*66
1513256794.65,3396,6.44,71748.5,-8.47,-20.29,-19.13,0,*67
1513256795.85,3397,6.5,71740.0,-8.45,-20.43,-19.07,0,*6D
1513256797.05,3398,6.44,71740.5,-8.45,-20.39,-19.07,0,*6F
1513256798.29,3399,6.5,71740.5,-8.45,-20.43,-18.93,0,*6F
1513256799.54,3400,6.5,71748.5,-8.43,-20.59,-19.23,0,*6F
1513256800.78,3401,6.5,71752.5,-8.45,-20.59,-19.23,0,*68
1513256802.01,3402,6.5,71744.5,-8.45,-20.93,-19.31,0,*6E
1513256803.23,3403,6.5,71748.3,-8.45,-20.89,-19.17,0,*60
1513256804.43,3404,6.5,71770.8,-8.45,-20.89,-19.07,0,*66
1513256805.64,3405,6.44,71770.8,-8.45,-20.89,-19.03,0,*63
1513256806.87,3406,6.5,71778.0,-8.47,-21.39,-19.37,0,*6F
1513256808.12,3407,6.44,71772.5,-8.47,-21.43,-19.27,0,*62
1513256809.41,3408,6.44,71774.0,-8.47,-21.53,-19.27,0,*6C
1513256810.64,3409,6.5,71788.8,-8.49,-21.53,-19.13,0,*64
1513256811.85,3410,6.5,71790.0,-8.49,-21.77,-19.37,0,*6C
1513256813.08,3411,6.5,71786.5,-8.47,-21.63,-19.13,0,*60
1513256814.27,3412,6.5,71776.5,-8.49,-21.63,-18.99,0,*6E
1513256815.5,3413,6.5,71780.0,-8.49,-21.77,-18.93,0,*60
1513256816.73,3414,6.5,71776.3,-8.49,-21.77,-18.93,0,*67
1513256817.96,3415,6.5,71786.3,-8.51,-21.93,-18.99,0,*6F
1513256819.19,3416,6.44,71780.5,-8.51,-21.77,-18.73,0,*62
1513256820.39,3417,6.44,71776.0,-8.55,-21.73,-18.65,0,*64
1513256821.6,3418,6.5,71786.3,-8.55,-21.73,-18.45,0,*69
1513256822.81,3419,6.44,71784.8,-8.55,-22.03,-18.59,0,*61
1513256824.04,3420,6.44,71794.0,-8.55,-21.73,-18.31,0,*61
1513256825.27,3421,6.5,71790.0,-8.61,-21.73,-18.17,0,*63
1513256826.51,3422,6.5,71784.0,-8.59,-21.53,-17.87,0,*6F
1513256827.79,3423,6.5,71786.3,-8.61,-21.67,-17.93,0,*67
1513256829.02,3424,6.5,71788.8,-8.61,-21.43,-17.69,0,*63
1513256830.3,3425,6.5,71788.0,-8.61,-21.23,-17.45,0,*6A
1513256831.56,3426,6.5,71780.5,-8.61,-20.99,-17.31,0,*6A
1513256832.81,3427,6.5,71778.5,-8.63,-20.83,-17.17,0,*66
1513256834.04,3428,6.5,71772.3,-8.63,-20.49,-16.79,0,*66
1513256835.29,3429,6.44,71766.3,-8.65,-20.39,-16.69,0,*67
1513256836.52,3430,6.44,71742.0,-8.63,-20.19,-16.55,0,*64
1513256837.77,3431,6.5,71720.0,-8.61,-19.91,-16.27,0,*68
1513256838.97,3432,6.5,71740.5,-8.63,-19.91,-16.37,0,*68
1513256840.2,3433,6.5,71750.3,-8.63,-19.91,-16.27,0,*68
1513256841.47,3434,6.5,71738.5,-8.65,-19.81,-16.17,0,*6B
1513256842.76,3435,6.5,71740.0,-8.65,-19.61,-15.89,0,*60
1513256844.0,3436,6.44,71734.5,-8.63,-19.27,-15.63,0,*63
1513256845.29,3437,6.5,71728.5,-8.65,-19.27,-15.57,0,*63
1513256846.53,3438,6.5,71716.0,-8.63,-19.23,-15.53,0,*6A
1513256847.78,3439,6.5,71716.8,-8.65,-19.03,-15.43,0,*6E
1513256849.02,3440,6.5,71702.0,-8.63,-18.99,-15.39,0,*69
1513256850.28,3441,6.5,71680.5,-8.65,-18.99,-15.39,0,*6E
1513256851.52,3442,6.44,71710.8,-8.65,-18.83,-15.25,0,*6B
1513256852.75,3443,6.5,71682.8,-8.65,-18.65,-15.15,0,*61
1513256854.01,3444,6.5,71704.5,-8.65,-18.55,-15.11,0,*61
1513256855.27,3445,6.5,71704.0,-8.67,-18.31,-14.83,0,*6A
1513256856.52,3446,6.5,71720.0,-8.67,-17.93,-14.55,0,*65
1513256857.78,3447,6.5,71726.3,-8.69,-17.97,-14.61,0,*69
1513256859.03,3448,6.5,71704.0,-8.69,-17.69,-14.43,0,*67
1513256860.32,3449,6.5,71724.3,-8.69,-17.55,-14.47,0,*6D
1513256861.57,3450,6.5,71736.5,-8.67,-17.45,-14.43,0,*6E
1513256862.8,3451,6.5,71740.0,-8.67,-17.21,-14.23,0,*6B
1513256864.04,3452,6.5,71746.5,-8.67,-16.75,-14.01,0,*68
1513256865.27,3453,6.5,71736.0,-8.69,-16.45,-13.73,0,*66
1513256866.52,3454,6.5,71728.3,-8.69,-16.31,-13.73,0,*62
1513256867.77,3455,6.5,71724.0,-8.69,-16.17,-13.69,0,*6C
1513256869.03,3456,6.5,71720.5,-8.69,-16.17,-13.73,0,*64
1513256870.25,3457,6.5,71674.8,-8.69,-16.03,-13.69,0,*6B
1513256871.48,3458,6.5,71734.8,-8.69,-15.95,-13.73,0,*63
1513256872.7,3459,6.5,71724.8,-8.69,-15.63,-13.47,0,*6C
1513256873.9,3460,6.5,71736.8,-8.67,-15.25,-13.15,0,*6D
1513256875.15,3461,6.5,71728.8,-8.69,-15.35,-13.47,0,*64
1513256876.38,3462,6.5,71742.5,-8.69,-15.15,-13.15,0,*62
1513256877.65,3463,6.5,71712.3,-8.69,-14.97,-13.01,0,*6D
1513256878.9,3464,6.5,71716.8,-8.69,-14.97,-13.11,0,*6B
1513256880.17,3465,6.5,71738.5,-8.69,-14.75,-13.01,0,*67
1513256881.44,3466,6.5,71738.5,-8.69,-14.55,-12.89,0,*67
1513256882.7,3467,6.5,71756.3,-8.71,-14.47,-12.83,0,*66
1513256883.94,3468,6.5,71778.8,-8.71,-14.29,-12.71,0,*6C
1513256885.18,3469,6.5,71770.8,-8.71,-14.15,-12.61,0,*63
1513256886.42,3470,6.5,71776.3,-8.71,-14.05,-12.47,0,*6E
1513256887.67,3471,6.5,71710.5,-8.71,-13.87,-12.57,0,*63
1513256888.88,3472,6.5,71702.3,-8.71,-13.73,-12.47,0,*6A
1513256890.08,3473,6.5,71764.0,-8.71,-13.47,-12.29,0,*64
1513256891.34,3474,6.5,71756.8,-8.71,-13.29,-12.15,0,*64
1513256892.54,3475,6.5,71768.0,-8.71,-13.43,-12.47,0,*6E
1513256893.78,3476,6.5,71750.5,-8.73,-13.23,-12.39,0,*60
1513256895.01,3477,6.5,71728.3,-8.71,-13.11,-12.35,0,*6E
1513256896.25,3478,6.5,71724.0,-8.71,-13.01,-12.29,0,*6D
1513256897.46,3479,6.5,71746.8,-8.71,-12.97,-12.29,0,*62
1513256898.72,3480,6.5,71740.8,-8.71,-13.01,-12.35,0,*67
1513256899.97,3481,6.5,71740.5,-8.71,-12.83,-12.15,0,*6F
1513256901.23,3482,6.5,71714.8,-8.73,-12.89,-12.35,0,*66
1513256902.44,3483,6.5,71684.3,-8.71,-12.93,-12.39,0,*62
1513256903.67,3484,6.5,71728.3,-8.71,-12.83,-12.29,0,*65
1513256904.9,3485,6.5,71728.3,-8.73,-12.89,-12.21,0,*64
1513256906.18,3486,6.5,71722.0,-8.73,-12.79,-12.15,0,*6F
1513256907.39,3487,6.5,71732.0,-8.71,-12.89,-12.29,0,*6C
1513256908.62,3488,6.5,71736.8,-8.73,-12.89,-12.39,0,*60
1513256909.88,3489,6.5,71750.8,-8.73,-12.93,-12.35,0,*66
1513256911.12,3490,6.5,71760.3,-8.73,-12.93,-12.47,0,*6B
1513256912.41,3491,6.5,71778.3,-8.73,-12.75,-12.35,0,*67
1513256913.67,3492,6.5,71780.5,-8.73,-12.75,-12.21,0,*61
1513256914.95,3493,6.5,71774.3,-8.73,-12.53,-12.15,0,*63